Weather in Chingola

Zambia     12°31′31″S   27°52′31″E
temp.,
°C
wind,
m/s
gust,
m/s
humid.,
%
clouds,
%
prec.,
mm/h
press.,
hPa
HPBL,
m
19 april, mon
mon1923:00+13sse27871 0.0 1019139
02:00+11se289499 0.0 1018191
05:00+11se2897100 0.0 1018225
08:00+15ese4980100 0.0 1019442
11:00+21e455925 0.0 10181294
14:00+24ese345079 0.0 10141696
17:00+22e226819 0.0 101462
20:00+17ese278299 0.1 1017213
20 april, tue
tue2023:00+14ese279412 0.0 1018175
02:00+12se239621 0.0 101873
05:00+13se259192 0.0 1017157
08:00+16ese2780100 0.0 1019368
11:00+20e3566100 0.0 1018798
14:00+22ese3460100 0.0 10151235
17:00+21ese247290 0.1 1014235
20:00+16se2288100 0.1 101618
21 april, wed
wed2123:00+16se2109198 0.0 1018374
02:00+16ese21083100 0.0 1017440
05:00+16ese2984100 0.0 1017457
08:00+17ese487957 0.0 1019465
11:00+21e466685 0.0 1018639
14:00+25e245190 0.0 10131967
17:00+20se2776100 0.1 1014256
20:00+18se297799 0.1 1016315
22 april, thu
thu2223:00+18se2978100 0.0 1017380
02:00+17ese2878100 0.0 1016322
05:00+15ese278581 0.0 1017203
08:00+17e267999 0.0 1019275
11:00+23e34575 0.0 10171173
14:00+25ese2352100 0.1 10131759
17:00+21e2277100 0.1 101445
20:00+19ese2375100 0.1 101563
23 april, fri
fri2323:00+18se2682100 0.0 1017204
02:00+18se2781100 0.0 1015259
05:00+17ese278291 0.0 1016260
08:00+18ese35789 0.0 1017295
11:00+24ese33553 0.0 10161344
14:00+26se344567 0.0 10122258
17:00+22ese1163100 0.0 101211
20:00+20se2669100 0.0 1014146